Location: Goudex
(43.3760°N, 0.9543°E)
Time: 17:55:31
(UTC+00:00)

SL-16 R/B - Pass Details

Date: 20 November 2019
Orbit: 842 x 846 km, 71.0° (Epoch: 15 December)

Event Time Altitude Azimuth Distance (km) Brightness Sun altitude
Exits shadow 05:55:11 14° 296° (WNW) 2,205 3.7 -11.0°
Maximum altitude 05:58:04 20° 260° (W) 1,861 3.5 -10.5°
Drops below altitude 10° 06:02:03 10° 215° (SW) 2,461 4.5 -9.8°
Sets 06:05:05 0° 199° (SSW) 3,390 5.3 -9.3°
